Location: Czekanka
(50.4925°N, 19.2643°E)
Time: 07:55:52
(UTC+00:00)

SL-16 R/B - Pass Details

Date: 19 September 2024
Orbit: 842 x 846 km, 71.0° (Epoch: 05 October)

Event Time Altitude Azimuth Distance (km) Brightness Sun altitude
Rises 02:22:20 0° 332° (NNW) 3,413 5.4 -19.5°
Reaches altitude 10° 02:25:03 10° 342° (NNW) 2,474 4.7 -19.1°
Maximum altitude 02:30:08 33° 46° (NE) 1,393 4.0 -18.4°
Drops below altitude 10° 02:35:12 10° 110° (ESE) 2,461 5.2 -17.7°
Sets 02:37:53 0° 120° (ESE) 3,392 5.9 -17.3°
